Location: Home
(42.5358°N, 72.7383°W)
Time: 13:04:23
(UTC-05:00)

Explorer 7 - Pass Details

Date: 07 December 2021
Orbit: 483 x 674 km, 50.3° (Epoch: 20 January)

Event Time Altitude Azimuth Distance (km) Brightness Sun altitude
Rises 08:33:57 0° 300° (WNW) 2,720 9.7 11.6°
Reaches altitude 10° 08:36:22 10° 308° (NW) 1,792 8.9 12.0°
Maximum altitude 08:40:10 37° 18° (NNE) 808 7.6 12.4°
Drops below altitude 10° 08:43:47 10° 87° (E) 1,703 10.0 12.9°
Sets 08:46:01 0° 96° (E) 2,566 11.0 13.1°
